"Period start","avg(HW err(1)/warn(2) (#))","avg(Visibility (m))","avg(Weather code (#))","avg(Precip intensity (mm/h))","min(HW err(1)/warn(2) (#))","max(HW err(1)/warn(2) (#))","std(HW err(1)/warn(2) (#))","med(HW err(1)/warn(2) (#))","min(Visibility (m))","max(Visibility (m))","std(Visibility (m))","med(Visibility (m))","min(Weather code (#))","max(Weather code (#))","std(Weather code (#))","med(Weather code (#))","min(Precip intensity (mm/h))","max(Precip intensity (mm/h))","std(Precip intensity (mm/h))","med(Precip intensity (mm/h))"
2014-05-17 00:00:00,2,49416,0,0.00,2,2,0,2,45291,50000,1330,50000,0,0,0,0,0.00,0.00,0.00,0.00
2014-05-17 00:10:00,2,45838,0,0.00,2,2,0,2,37152,50000,4337,47451,0,0,0,0,0.00,0.00,0.00,0.00
2014-05-17 00:20:00,2,47875,0,0.00,2,2,0,2,41362,50000,2599,48863,0,0,0,0,0.00,0.00,0.00,0.00
2014-05-17 00:30:00,2,44380,0,0.00,2,2,0,2,38151,50000,4071,44443,0,0,0,0,0.00,0.00,0.00,0.00
2014-05-17 00:40:00,2,45601,0,0.00,2,2,0,2,36768,50000,4365,46752,0,0,0,0,0.00,0.00,0.00,0.00
2014-05-17 00:50:00,2,45796,0,0.00,2,2,0,2,35389,50000,5193,48006,0,0,0,0,0.00,0.00,0.00,0.00
2014-05-17 01:00:00,2,39903,0,0.00,0,2,1,2,32968,50000,5617,40001,0,0,0,0,0.00,0.00,0.00,0.00
2014-05-17 01:10:00,2,35542,,0.00,2,2,0,2,35542,35542,0,35542,,,,,0.00,0.00,0.00,0.00
2014-05-17 01:20:00,2,36803,,0.00,2,2,0,2,36803,36803,0,36803,,,,,0.00,0.00,0.00,0.00
2014-05-17 01:30:00,2,30837,,0.00,2,2,0,2,30837,30837,0,30837,,,,,0.00,0.00,0.00,0.00
2014-05-17 01:40:00,2,43179,,0.00,2,2,0,2,43179,43179,0,43179,,,,,0.00,0.00,0.00,0.00
2014-05-17 01:50:00,2,36796,0,0.00,2,2,0,2,29268,47892,5977,36425,0,0,0,0,0.00,0.00,0.00,0.00
2014-05-17 02:00:00,2,42808,0,0.00,2,2,0,2,34338,49724,4673,43134,0,0,0,0,0.00,0.00,0.00,0.00
2014-05-17 02:10:00,2,34414,0,0.00,2,2,0,2,2177,50000,18437,43735,0,0,0,0,0.00,0.00,0.00,0.00
2014-05-17 02:20:00,1,43651,0,0.00,0,2,1,0,25876,50000,7727,47594,0,0,0,0,0.00,0.00,0.00,0.00
2014-05-17 02:30:00,0,41388,0,0.00,0,0,0,0,33143,49735,6044,42053,0,0,0,0,0.00,0.00,0.00,0.00
2014-05-17 02:40:00,2,46009,0,0.00,2,2,0,2,38448,50000,3833,46754,0,0,0,0,0.00,0.00,0.00,0.00
2014-05-17 02:50:00,2,42176,0,0.00,2,2,0,2,30148,50000,6405,44738,0,0,0,0,0.00,0.00,0.00,0.00
2014-05-17 03:00:00,2,38672,0,0.00,2,2,0,2,23805,50000,9452,41042,0,0,0,0,0.00,0.00,0.00,0.00
2014-05-17 03:10:00,2,41688,0,0.00,2,2,0,2,29491,50000,7043,42851,0,0,0,0,0.00,0.00,0.00,0.00
2014-05-17 03:20:00,2,46081,0,0.00,2,2,0,2,39784,50000,3843,46908,0,0,0,0,0.00,0.00,0.00,0.00
2014-05-17 03:30:00,2,46485,0,0.00,2,2,0,2,36689,50000,4227,48261,0,0,0,0,0.00,0.00,0.00,0.00
2014-05-17 03:40:00,2,48586,0,0.00,2,2,0,2,43377,50000,2011,49520,0,0,0,0,0.00,0.00,0.00,0.00
2014-05-17 03:50:00,2,44630,0,0.00,2,2,0,2,35595,50000,4744,44966,0,0,0,0,0.00,0.00,0.00,0.00
2014-05-17 04:00:00,2,42615,0,0.00,2,2,0,2,32331,50000,5050,41448,0,0,0,0,0.00,0.00,0.00,0.00
2014-05-17 04:10:00,2,49036,0,0.00,0,2,1,2,45224,50000,1452,49667,0,0,0,0,0.00,0.00,0.00,0.00
2014-05-17 04:20:00,2,45466,0,0.00,2,2,0,2,39019,50000,3805,45562,0,0,0,0,0.00,0.00,0.00,0.00
2014-05-17 04:30:00,1,41355,0,0.00,0,2,1,0,30652,50000,5971,43186,0,0,0,0,0.00,0.00,0.00,0.00
2014-05-17 04:40:00,0,48544,0,0.00,0,0,0,0,45623,50000,1837,50000,0,0,0,0,0.00,0.00,0.00,0.00
2014-05-17 04:50:00,0,46565,0,0.00,0,2,1,0,36747,50000,4336,49205,0,0,0,0,0.00,0.00,0.00,0.00
2014-05-17 05:00:00,2,45533,0,0.00,0,2,1,2,40794,50000,3645,44114,0,0,0,0,0.00,0.00,0.00,0.00
2014-05-17 05:10:00,2,41647,0,0.00,2,2,0,2,29165,47985,5488,43138,0,0,0,0,0.00,0.00,0.00,0.00
2014-05-17 05:20:00,2,48828,0,0.00,2,2,0,2,44665,50000,1773,50000,0,0,0,0,0.00,0.00,0.00,0.00
2014-05-17 05:30:00,2,49757,0,0.00,2,2,0,2,48443,50000,509,50000,0,0,0,0,0.00,0.00,0.00,0.00
2014-05-17 05:40:00,2,49421,0,0.00,2,2,0,2,46456,50000,1174,50000,0,0,0,0,0.00,0.00,0.00,0.00
2014-05-17 05:50:00,2,49027,0,0.00,2,2,0,2,43887,50000,2025,50000,0,0,0,0,0.00,0.00,0.00,0.00
2014-05-17 06:00:00,2,14042,47,1.00,2,2,0,2,9049,41339,9157,11090,0,61,17,52,0.00,2.05,0.61,0.95
2014-05-17 06:10:00,2,22604,54,0.72,2,2,0,2,11986,30835,5723,21772,51,61,4,52,0.25,1.40,0.37,0.62
2014-05-17 06:20:00,2,19800,60,0.26,2,2,0,2,9683,26427,6634,22648,51,61,3,61,0.05,0.45,0.14,0.25
2014-05-17 06:30:00,2,6088,69,0.48,2,2,0,2,4776,7414,904,6025,61,71,4,71,0.25,0.75,0.16,0.53
2014-05-17 06:40:00,2,6322,72,0.68,2,2,0,2,4803,8055,1021,6268,71,74,1,71,0.15,1.65,0.42,0.57
2014-05-17 06:50:00,2,3522,71,1.63,2,2,0,2,2180,4786,941,3421,71,71,0,71,0.60,3.25,0.75,1.53
2014-05-17 07:00:00,2,3000,71,2.66,2,2,0,2,2232,3677,429,2928,71,71,0,71,1.35,3.95,0.76,2.65
2014-05-17 07:10:00,2,3345,71,1.66,2,2,0,2,2325,5073,866,3019,71,71,0,71,0.70,2.75,0.56,1.80
2014-05-17 07:20:00,2,2468,71,1.89,2,2,0,2,1621,4623,953,2206,71,71,0,71,0.90,2.60,0.59,1.82
2014-05-17 07:30:00,2,1858,71,3.25,2,2,0,2,1312,2647,421,1829,71,71,0,71,2.00,4.70,0.74,3.10
2014-05-17 07:40:00,2,2926,72,2.19,2,2,0,2,2247,3971,548,2984,71,74,1,71,1.65,2.70,0.32,2.12
2014-05-17 07:50:00,2,2312,70,2.06,2,2,0,2,2035,2674,247,2192,67,71,2,71,1.20,3.70,0.81,1.73
2014-05-17 08:00:00,2,2473,71,1.44,2,2,0,2,2158,3126,256,2409,71,71,0,71,0.45,2.40,0.53,1.33
2014-05-17 08:10:00,2,3647,71,1.32,2,2,0,2,2564,5065,981,3061,71,71,0,71,0.30,2.80,0.75,1.35
2014-05-17 08:20:00,2,3769,71,0.86,2,2,0,2,2623,5913,1090,3376,71,71,0,71,0.20,1.30,0.32,0.97
2014-05-17 08:30:00,2,6280,72,0.89,2,2,0,2,2128,9531,2493,7352,71,74,1,71,0.15,2.80,0.91,0.28
2014-05-17 08:40:00,2,5342,72,0.67,2,2,0,2,2711,7781,1556,5438,71,74,1,71,0.10,1.50,0.46,0.55
2014-05-17 08:50:00,2,4361,71,0.61,2,2,0,2,3110,5993,909,4156,71,71,0,71,0.45,1.10,0.22,0.47
2014-05-17 09:00:00,2,3090,71,1.43,2,2,0,2,1189,4858,1213,3338,71,71,0,71,0.50,2.10,0.56,1.68
2014-05-17 09:10:00,2,2961,71,1.27,2,2,0,2,1602,5452,1215,2730,71,71,0,71,0.55,2.40,0.59,1.18
2014-05-17 09:20:00,2,4115,71,0.85,2,2,0,2,2526,6267,965,3932,71,71,0,71,0.40,1.60,0.37,0.75
2014-05-17 09:30:00,2,2371,71,2.54,2,2,0,2,1586,3642,621,2245,71,71,0,71,1.50,4.10,0.83,2.40
2014-05-17 09:40:00,2,1087,71,7.29,2,2,0,2,877,1427,146,1078,71,71,0,71,5.75,9.35,1.25,6.83
2014-05-17 09:50:00,2,969,72,8.10,2,2,0,2,812,1195,117,955,71,72,0,72,4.55,11.65,1.89,8.03
2014-05-17 10:00:00,2,726,72,13.23,2,2,0,2,643,799,53,718,72,72,0,72,12.15,15.80,1.01,12.88
2014-05-17 10:10:00,2,857,72,10.61,2,2,0,2,778,1016,66,860,72,72,0,72,8.15,13.05,1.59,10.43
2014-05-17 10:20:00,2,775,72,9.80,2,2,0,2,692,851,48,780,72,72,0,72,8.20,11.45,1.10,9.65
2014-05-17 10:30:00,2,791,72,9.40,2,2,0,2,654,992,111,776,72,72,0,72,6.75,11.30,1.46,9.38
2014-05-17 10:40:00,2,851,72,10.20,2,2,0,2,780,966,50,846,72,72,0,72,7.25,13.70,1.53,9.97
2014-05-17 10:50:00,2,982,72,9.17,2,2,0,2,695,1236,170,1016,71,72,0,72,7.15,12.50,2.00,8.25
2014-05-17 11:00:00,2,1101,71,8.97,2,2,0,2,835,1345,157,1094,71,72,0,71,6.50,12.70,1.60,8.95
2014-05-17 11:10:00,2,1366,71,7.15,2,2,0,2,788,2235,482,1332,71,72,0,71,3.20,11.55,2.92,7.03
2014-05-17 11:20:00,2,1322,71,7.00,2,2,0,2,930,1776,281,1379,71,71,0,71,4.95,10.05,1.50,6.40
2014-05-17 11:30:00,2,1090,71,8.15,2,2,0,2,994,1181,54,1077,71,71,0,71,7.00,10.00,0.88,8.22
2014-05-17 11:40:00,2,889,72,9.83,2,2,0,2,813,1020,65,866,71,72,0,72,9.00,10.95,0.67,9.60
2014-05-17 11:50:00,2,774,72,12.24,2,2,0,2,636,928,111,780,72,72,0,72,10.80,13.75,0.91,12.12
2014-05-17 12:00:00,2,655,72,12.79,2,2,0,2,601,714,31,658,72,72,0,72,9.40,15.50,1.81,12.68
2014-05-17 12:10:00,2,615,72,15.03,2,2,0,2,563,663,32,612,72,72,0,72,12.75,17.15,1.27,15.20
2014-05-17 12:20:00,2,731,72,12.75,2,2,0,2,644,811,52,730,72,72,0,72,10.10,14.70,1.20,12.88
2014-05-17 12:30:00,2,778,72,11.64,2,2,0,2,593,930,101,786,72,72,0,72,8.40,14.85,1.96,11.45
2014-05-17 12:40:00,2,647,72,12.93,2,2,0,2,512,838,110,631,72,72,0,72,8.85,15.65,1.99,13.03
2014-05-17 12:50:00,2,728,72,11.22,2,2,0,2,542,900,137,724,72,72,0,72,8.30,15.60,2.40,10.85
2014-05-17 13:00:00,2,766,72,11.61,2,2,0,2,705,899,64,746,72,72,0,72,7.95,14.45,1.88,11.80
2014-05-17 13:10:00,2,699,72,10.70,2,2,0,2,631,784,36,695,72,72,0,72,8.75,13.70,1.46,10.47
2014-05-17 13:20:00,2,811,72,7.00,2,2,0,2,749,874,32,805,72,72,0,72,6.20,8.00,0.65,7.17
2014-05-17 13:30:00,2,1380,71,3.65,2,2,0,2,932,1764,249,1353,71,72,0,71,2.80,6.30,1.06,3.10
2014-05-17 13:40:00,2,945,71,4.62,2,2,0,2,774,1181,125,906,71,71,0,71,3.60,5.75,0.65,4.55
2014-05-17 13:50:00,2,899,72,7.12,2,2,0,2,648,1069,119,910,71,72,0,72,4.75,9.80,1.45,7.27
2014-05-17 14:00:00,2,610,72,12.14,2,2,0,2,536,682,44,616,72,72,0,72,10.05,15.00,1.71,12.33
2014-05-17 14:10:00,2,602,72,13.91,2,2,0,2,513,727,56,587,72,72,0,72,9.55,16.75,1.95,14.25
2014-05-17 14:20:00,2,861,72,8.73,2,2,0,2,682,1190,140,821,71,72,0,72,6.45,12.95,1.81,8.25
2014-05-17 14:30:00,2,1574,71,4.00,2,2,0,2,1211,2881,464,1444,71,71,0,71,1.15,6.00,1.47,4.30
2014-05-17 14:40:00,2,2283,71,1.64,2,2,0,2,1940,3167,330,2216,71,71,0,71,0.95,2.35,0.47,1.58
2014-05-17 14:50:00,2,3037,71,1.24,2,2,0,2,2256,3683,406,3066,71,71,0,71,0.55,1.75,0.36,1.23
2014-05-17 15:00:00,2,2691,71,1.12,2,2,0,2,2116,3611,443,2629,71,71,0,71,0.60,1.75,0.32,1.12
2014-05-17 15:10:00,2,2924,71,1.48,2,2,0,2,1816,4165,773,2925,71,71,0,71,0.55,2.80,0.69,1.18
2014-05-17 15:20:00,2,3492,71,1.36,2,2,0,2,2472,4977,711,3445,71,71,0,71,0.65,2.30,0.49,1.27
2014-05-17 15:30:00,2,3339,71,1.48,2,2,0,2,2560,3731,338,3411,71,71,0,71,1.05,1.90,0.33,1.48
2014-05-17 15:40:00,2,4174,71,1.15,2,2,0,2,3411,5092,585,3922,71,71,0,71,0.30,2.40,0.70,0.78
2014-05-17 15:50:00,2,3514,71,1.48,2,2,0,2,2461,4271,653,3575,71,71,0,71,0.70,3.25,0.75,1.33
2014-05-17 16:00:00,2,4007,71,1.02,2,2,0,2,2621,5678,1009,3672,71,71,0,71,0.45,1.90,0.41,0.90
2014-05-17 16:10:00,2,4933,71,0.52,2,2,0,2,1856,8334,2165,4844,71,71,0,71,0.15,1.25,0.32,0.45
2014-05-17 16:20:00,2,2048,71,3.71,2,2,0,2,1609,2476,298,2104,71,71,0,71,1.55,5.50,1.17,3.80
2014-05-17 16:30:00,2,1847,71,2.60,2,2,0,2,1322,2494,296,1832,71,71,0,71,2.10,3.30,0.34,2.58
2014-05-17 16:40:00,2,2073,71,2.50,2,2,0,2,1210,2823,496,2094,71,71,0,71,1.30,4.35,1.00,2.25
2014-05-17 16:50:00,2,1725,71,3.07,2,2,0,2,1301,2391,333,1615,71,71,0,71,2.05,3.80,0.55,3.17
2014-05-17 17:00:00,2,2661,71,1.86,2,2,0,2,2339,3357,314,2552,71,71,0,71,0.60,4.65,1.16,1.55
2014-05-17 17:10:00,2,2979,71,1.12,2,2,0,2,2504,3441,297,3024,71,71,0,71,0.60,1.55,0.33,1.08
2014-05-17 17:20:00,2,6210,71,0.60,2,2,0,2,3399,11174,2567,5594,71,71,0,71,0.25,1.00,0.21,0.62
2014-05-17 17:30:00,2,6521,71,0.35,2,2,0,2,3390,9750,2151,6507,71,71,0,71,0.15,0.90,0.23,0.23
2014-05-17 17:40:00,2,13322,71,0.17,2,2,0,2,7227,16932,3214,14228,71,71,0,71,0.00,0.35,0.11,0.15
2014-05-17 17:50:00,2,6041,71,0.21,2,2,0,2,3234,13013,2728,5070,71,71,0,71,0.05,0.55,0.15,0.15
2014-05-17 18:00:00,2,9536,74,0.03,2,2,0,2,5029,14956,2593,9729,71,77,3,74,0.00,0.05,0.02,0.05
2014-05-17 18:10:00,2,26618,67,0.01,2,2,0,2,8668,43303,10931,26298,0,77,22,74,0.00,0.05,0.02,0.00
2014-05-17 18:20:00,2,44554,0,0.00,2,2,0,2,38364,50000,3886,45084,0,0,0,0,0.00,0.00,0.00,0.00
2014-05-17 18:30:00,2,43906,0,0.00,2,2,0,2,35986,48243,3534,44700,0,0,0,0,0.00,0.00,0.00,0.00
2014-05-17 18:40:00,2,43378,0,0.00,2,2,0,2,38853,49117,3493,43208,0,0,0,0,0.00,0.00,0.00,0.00
2014-05-17 18:50:00,2,45206,0,0.00,2,2,0,2,36617,50000,4092,45227,0,0,0,0,0.00,0.00,0.00,0.00
2014-05-17 19:00:00,2,42085,0,0.00,2,2,0,2,35666,47271,3803,43210,0,0,0,0,0.00,0.00,0.00,0.00
2014-05-17 19:10:00,2,44468,0,0.00,2,2,0,2,41480,47197,1911,44790,0,0,0,0,0.00,0.00,0.00,0.00
2014-05-17 19:20:00,2,43064,0,0.00,2,2,0,2,34475,50000,5692,44619,0,0,0,0,0.00,0.00,0.00,0.00
2014-05-17 19:30:00,2,44264,0,0.00,2,2,0,2,36468,50000,4711,45392,0,0,0,0,0.00,0.00,0.00,0.00
2014-05-17 19:40:00,2,38312,0,0.00,2,2,0,2,32238,44935,4721,38550,0,0,0,0,0.00,0.00,0.00,0.00
2014-05-17 19:50:00,2,36659,0,0.00,2,2,0,2,27924,47157,5827,38067,0,0,0,0,0.00,0.00,0.00,0.00
2014-05-17 20:00:00,2,36529,0,0.00,2,2,0,2,28629,47941,4838,35686,0,0,0,0,0.00,0.00,0.00,0.00
2014-05-17 20:10:00,2,42980,0,0.00,2,2,0,2,35794,50000,4840,43001,0,0,0,0,0.00,0.00,0.00,0.00
2014-05-17 20:20:00,2,39640,0,0.00,2,2,0,2,27583,48924,5852,39955,0,0,0,0,0.00,0.00,0.00,0.00
2014-05-17 20:30:00,2,37815,0,0.00,2,2,0,2,30221,49653,6160,35711,0,0,0,0,0.00,0.00,0.00,0.00
2014-05-17 20:40:00,2,38737,0,0.00,2,2,0,2,25413,47606,7509,41366,0,0,0,0,0.00,0.00,0.00,0.00
2014-05-17 20:50:00,2,39573,0,0.00,2,2,0,2,30344,50000,6711,40126,0,0,0,0,0.00,0.00,0.00,0.00
2014-05-17 21:00:00,2,31385,0,0.00,2,2,0,2,24023,38011,4598,31601,0,0,0,0,0.00,0.00,0.00,0.00
2014-05-17 21:10:00,2,33145,0,0.00,2,2,0,2,26157,39253,4854,32496,0,0,0,0,0.00,0.00,0.00,0.00
2014-05-17 21:20:00,2,30285,0,0.00,2,2,0,2,23138,36106,3990,31535,0,0,0,0,0.00,0.00,0.00,0.00
2014-05-17 21:30:00,2,29775,0,0.00,2,2,0,2,20723,36629,4645,30340,0,0,0,0,0.00,0.00,0.00,0.00
2014-05-17 21:40:00,2,33895,0,0.00,2,2,0,2,24625,45017,6472,32697,0,0,0,0,0.00,0.00,0.00,0.00
2014-05-17 21:50:00,2,35798,0,0.00,2,2,0,2,25901,50000,6814,37077,0,0,0,0,0.00,0.00,0.00,0.00
2014-05-17 22:00:00,2,36624,0,0.00,2,2,0,2,29819,47656,5809,34494,0,0,0,0,0.00,0.00,0.00,0.00
2014-05-17 22:10:00,2,36589,0,0.00,2,2,0,2,27916,46056,6480,34730,0,0,0,0,0.00,0.00,0.00,0.00
2014-05-17 22:20:00,2,37224,0,0.00,2,2,0,2,25224,47100,6242,37932,0,0,0,0,0.00,0.00,0.00,0.00
2014-05-17 22:30:00,2,38174,0,0.00,2,2,0,2,28240,49779,5887,39385,0,0,0,0,0.00,0.00,0.00,0.00
2014-05-17 22:40:00,2,37841,0,0.00,2,2,0,2,25695,47117,5662,38860,0,0,0,0,0.00,0.00,0.00,0.00
2014-05-17 22:50:00,2,40107,0,0.00,2,2,0,2,28109,50000,9110,40608,0,0,0,0,0.00,0.00,0.00,0.00
2014-05-17 23:00:00,2,40386,0,0.00,2,2,0,2,32163,50000,5508,38994,0,0,0,0,0.00,0.00,0.00,0.00
2014-05-17 23:10:00,2,31275,0,0.00,2,2,0,2,25151,37676,4276,31114,0,0,0,0,0.00,0.00,0.00,0.00
2014-05-17 23:20:00,2,37589,0,0.00,2,2,0,2,29881,46002,5467,36996,0,0,0,0,0.00,0.00,0.00,0.00
2014-05-17 23:30:00,2,35312,0,0.00,2,2,0,2,29546,44116,4230,34101,0,0,0,0,0.00,0.00,0.00,0.00
2014-05-17 23:40:00,2,33193,0,0.00,2,2,0,2,21802,41742,5938,33082,0,0,0,0,0.00,0.00,0.00,0.00
2014-05-17 23:50:00,2,45404,0,0.00,2,2,0,2,38356,50000,4493,47110,0,0,0,0,0.00,0.00,0.00,0.00
